STARLINK-2527 (48324 NORAD) Tracking and Keplerian Element Data

This shows tracking and keplerian element data for the satellite.

Feedback or suggestion? Click here.




ElementValue
Catalog48324
NameSTARLINK-2527
Epoch Orbit185
Epoch Day170.58334491
Epoch Year2021
RAAN281.421
Inclination53.052
Eccentricity0.000131
Argument of Perigee92.4198
Mean Anonmoly107.72
Mean Motion15.06392843
Decay Rate-0.00014033
L11 48324U 21036BA 21170.58334491 -.00014033 00000-0 -92519-3 0 9993
L22 48324 53.0520 281.4210 0001310 92.4198 107.7200 15.06392843 1856

Live tracking and technical data element details for STARLINK-2527 (NORAD 48324). STARLINK-2527 can be tracked NOW for your location showing map with azimuth and elevation plus other details from your city location.

Track the satellite on the map from your city or location and see movement details for azimuth, elevation, latitude, longitude, range, height, and movement on the map or in text.







IsCatalogInMostPopularTable: catalog: 48324, numindb: 26
Update: records affected: 1



GetName: 48324 STARLINK-2527

Hit Count: updated at: Mon, 21 Jun 2021 03:44:48 GMT